FENGYUN 1C DEB

Satellite information

Favourite Embed

Satellite Type and Status

DEBRISIN ORBIT

Key statistics

Satellite FENGYUN 1C DEB at a glance.

Uptime

9555

Days in orbit

Revolutions

≈ 14.4

Per day

Orbit

SSO

Sun Synchronous Orbit

Inclination

98.8

Latest

Satellite identification and parameters

Extended collection of information and parameters for FENGYUN 1C DEB.

Object identification

Identified? True

Debris? True

Object name: FENGYUN 1C DEB

International designator: 1999-025DMP

Object number (NORAD): 35159

Object ID (CCSDS): 35159

Country: PEOPLES REPUBLIC OF CHINA (PRC)

Current information (Y/N): Y

RCS size: SMALL

Orbital parameters

Period: 99.823 minutes

Inclination: 98.8475 deg

SMA: 7128.192 km

Apoapsis: 756.909 km

Periapsis: 743.206 km

RAAN: 256.7191 deg

Eccentricy: 0.0009612

Argument of periapsis: 278.9377 deg

Mean anomaly: 241.0037 deg

Mean motion: 14.42559196 rev/day

Mean motion (dot): 0.0000406 rev/day2

B* drag term: 0.0012367 1/REarth

Two-line elements (TLE)

Creation date: July 6, 2025, 10:56 p.m.

Reference frame: TEME

Reference center: EARTH

Epoch: July 6, 2025, 3:40 p.m. UTC

TLE line 0: 0 FENGYUN 1C DEB

TLE line 1: 1 35159U 99025DMP 25187.65314616 .00004060 00000-0 12367-2 0 9994

TLE line 2: 2 35159 98.8475 256.7191 0009612 278.9377 241.0037 14.42559196894709

Live tracking on map

Real-time ground track for satellite FENGYUN 1C DEB.

In-orbit conjunctions

A list of the most updated potential collisions computed for object FENGYUN 1C DEB.

Target Orbit TCA Probability of collision Miss distance Type
CZ-6A DEB LEO 2025-03-27 07:47:58 0.0002314796 57.0 (m) DEBRIS
COSMOS 990 LEO 2024-12-05 04:25:22 0.0001196481 479.0 (m) PAYLOAD
PICOSAT 9 LEO 2024-06-26 14:27:14 0.000249358 541.0 (m) PAYLOAD

Associated space launch

Chinese polar orbiting meteorological satellite

FENGYUN 1C DEB was lifted into orbit during the mission ‘Long March 4B | Feng Yun 1C’, on board a Long March 4B space rocket.

The launch took place on May 10, 1999, 1:33 a.m. from Launch Complex 7.

For more information about the launch, click the button.

Launch to space Long March 4B | Feng Yun 1C
Long March 4B | Feng Yun 1C

Agency: N/A

Status: Launch Successful

Launch date: May 10, 1999, 1:33 a.m. UTC

Rocket: Long March 4B

Launch pad: Launch Complex 7

Location: Taiyuan Satellite Launch Center, People's Republic of China

...

Latest news about this satellite

There are no fresh news available about this satellite. Check back as we update our databases every day.


Newsletter sign-up

Weekly statistics, charts and insights to help you stay on top of the space industry.